[[{"header":{"parameterUnit":"m.s-1","parameterCategory":1,"la1":30.2991,"la2":30.254,"lo1":-89.0895,"lo2":-89.0444,"dy":0.0017,"dx":0.0017,"nx":28,"ny":28,"refTime":"2024-03-31T03:00:00:Z","depth":0,"parameterNumber":2,"parameterNumberName":"U-component_of_WINDS"},"data":[0,0,0,0,0,0,0,0,0,0,0,0,0,0,0,0,0,0,0,0,0,0,0,0,0,0,0,0,0,0,0,0,0,0,0,0,0,0,0,0,0,0,0,0,0,0,0,0,0,0,0,0,0,0,0,0,0,0,-0.6466,-0.6465,0,-0.6459,-0.6458,-0.6458,-0.6442,-0.6441,-0.6441,-0.6441,-0.6434,-0.6434,-0.6434,0,0,0,0,0,0,0,0,0,0,0,0,0,-0.6465,-0.6465,-0.6466,-0.6465,-0.6465,-0.6459,-0.6458,-0.6458,-0.6442,-0.6441,-0.6441,-0.6441,-0.6434,-0.6434,-0.6434,0,0,0,0,0,0,0,0,0,0,0,0,0,-0.6462,-0.6465,-0.6466,-0.6456,-0.6455,-0.6459,-0.6458,-0.6458,-0.6442,-0.6441,-0.6441,-0.644,-0.6434,-0.6434,-0.6434,-0.6446,0,0,-0.6435,-0.6435,0,0,0,0,0,0,0,0,-0.6463,-0.6463,-0.6458,-0.6457,-0.6456,-0.645,-0.6456,-0.6454,-0.6442,-0.6447,-0.6441,-0.644,-0.644,-0.644,-0.644,-0.6446,-0.6446,-0.6435,-0.6435,-0.6435,-0.6435,0,0,0,0,0,0,0,-0.6463,-0.6463,-0.6463,-0.6458,-0.6457,-0.6453,-0.6452,-0.6456,-0.6447,-0.6447,-0.6445,-0.6445,-0.6439,-0.6439,-0.6439,-0.6446,-0.6435,-0.6435,-0.6435,-0.6436,-0.6462,-0.6462,0,0,0,0,0,0,-0.6464,-0.6463,-0.6463,-0.6463,-0.6458,-0.6453,-0.6452,-0.6453,-0.6446,-0.6445,-0.6445,-0.6444,-0.6439,-0.6439,-0.6439,-0.6453,-0.6435,-0.6436,-0.6436,-0.6461,-0.6462,-0.6462,0,0,0,0,0,0,-0.6464,-0.6464,-0.6463,-0.6462,-0.6462,-0.6454,-0.6455,-0.6453,-0.6453,-0.6445,-0.6444,-0.6447,-0.6439,-0.6439,-0.6445,-0.6452,-0.6436,-0.6436,-0.646,-0.6461,-0.6462,-0.648,0,0,0,0,0,0,-0.6464,-0.6465,-0.6469,-0.6463,-0.6462,-0.6469,-0.6455,-0.6453,-0.6453,-0.6452,-0.6446,-0.6445,-0.6438,-0.6444,-0.6445,-0.6452,-0.6436,-0.646,-0.6461,-0.6462,-0.6479,-0.6481,-0.6483,0,0,0,0,0,-0.6464,-0.6474,-0.6469,-0.6469,-0.6467,-0.6469,-0.6469,-0.6461,-0.6454,-0.6458,-0.6453,-0.6445,-0.6451,-0.6445,-0.6445,-0.6453,-0.6459,-0.6461,-0.6462,-0.6477,-0.6481,-0.6483,0,0,0,0,0,0,-0.6482,-0.6473,-0.6467,-0.6475,-0.6473,-0.6467,-0.6472,-0.6465,-0.6464,-0.6463,-0.6453,-0.6452,-0.646,-0.6457,-0.645,-0.6464,-0.6454,-0.6455,-0.6466,-0.6469,-0.6471,-0.6472,-0.6436,0,0,0,0,0,-0.6486,-0.6488,-0.6481,-0.6489,-0.6488,-0.648,-0.6481,-0.6475,-0.6472,-0.6471,-0.6467,-0.6465,-0.6466,-0.6467,-0.6468,-0.6478,-0.6477,-0.6483,-0.6486,-0.6488,-0.6489,-0.6495,-0.6498,-0.6467,-0.6467,-0.6466,0,0,-0.6496,-0.6492,-0.6494,-0.6492,-0.649,-0.6493,-0.6479,-0.6483,-0.6485,-0.6472,-0.6477,-0.6474,-0.6471,-0.6479,-0.6482,-0.6477,-0.6498,-0.649,-0.6491,-0.6491,-0.6496,-0.6499,-0.6502,-0.6467,-0.6467,-0.6467,0,0,-0.6515,-0.6512,-0.6518,-0.6516,-0.6512,-0.6507,-0.6509,-0.6503,-0.65,-0.6506,-0.6496,-0.6498,-0.6501,-0.6499,-0.6499,-0.6518,-0.651,-0.6518,-0.6531,-0.6536,-0.6539,-0.6541,-0.6548,-0.655,-0.652,-0.652,-0.652,0,-0.6528,-0.6531,-0.6522,-0.6526,-0.6526,-0.6514,-0.6521,-0.6519,-0.6516,-0.6516,-0.651,-0.6513,-0.6511,-0.6518,-0.6523,-0.6523,-0.6524,-0.6519,-0.6539,-0.6541,-0.6543,-0.6549,-0.6552,-0.6521,-0.652,-0.652,-0.652,0,-0.6547,-0.655,-0.6555,-0.6552,-0.6553,-0.6558,-0.655,-0.6552,-0.6546,-0.6541,-0.6547,-0.6543,-0.6543,-0.6544,-0.6539,-0.6551,-0.6548,-0.6541,-0.653,-0.6547,-0.6553,-0.6555,-0.6522,-0.6522,-0.6521,-0.6521,0,0,-0.6577,-0.6569,-0.6571,-0.657,-0.6565,-0.6567,-0.6572,-0.6572,-0.6574,-0.6572,-0.6576,-0.6579,-0.6572,-0.6571,-0.6565,-0.657,-0.6585,-0.6562,-0.6562,-0.6567,-0.6599,-0.6605,-0.6608,-0.658,-0.6581,-0.6581,-0.66,0,-0.6595,-0.6602,-0.6594,-0.6604,-0.6606,-0.6595,-0.6599,-0.6597,-0.6593,-0.6595,-0.659,-0.6592,-0.6583,-0.6583,-0.6587,-0.6583,-0.6592,-0.6581,-0.6584,-0.6584,-0.6585,-0.6611,-0.6617,-0.6635,-0.6602,-0.6602,-0.6603,0,-0.6617,-0.6616,-0.6626,-0.6621,-0.6621,-0.6625,-0.6625,-0.6626,-0.6624,-0.662,-0.662,-0.6613,-0.6617,-0.6607,-0.6614,-0.6607,-0.6607,-0.6605,-0.6606,-0.6606,-0.6595,-0.6612,-0.664,-0.6643,-0.6606,-0.6606,-0.6606,0,-0.6638,-0.6639,-0.6645,-0.6644,-0.6639,-0.6642,-0.6639,-0.6636,-0.6637,-0.6636,-0.6637,-0.6637,-0.6637,-0.6637,-0.663,-0.6623,-0.6638,-0.6627,-0.6636,-0.6636,-0.6639,-0.6639,-0.6668,-0.6639,-0.6639,-0.6639,-0.6639,0,-0.6659,-0.6665,-0.6654,-0.6658,-0.6665,-0.6656,-0.6663,-0.666,-0.6657,-0.666,-0.6651,-0.6654,-0.6644,-0.6647,-0.6641,-0.6648,-0.6648,-0.6645,-0.6644,-0.6646,-0.6647,-0.6647,-0.6645,-0.664,-0.664,-0.664,-0.664,0,-0.6683,-0.6676,-0.6682,-0.6676,-0.6675,-0.668,-0.6675,-0.6679,-0.6674,-0.6678,-0.6678,-0.6671,-0.6673,-0.6666,-0.6667,-0.6664,-0.6673,-0.6669,-0.6674,-0.6673,-0.6682,-0.6681,-0.6712,-0.6716,-0.6685,-0.6685,-0.6685,0,-0.6697,-0.6702,-0.6697,-0.6698,-0.6696,-0.6698,-0.6699,-0.669,-0.6691,-0.6688,-0.6692,-0.6693,-0.6694,-0.6698,-0.6693,-0.6694,-0.669,-0.6701,-0.669,-0.6693,-0.6691,-0.6691,-0.6691,-0.6703,-0.6704,-0.6704,-0.6704,0,-0.6723,-0.672,-0.672,-0.672,-0.6721,-0.6721,-0.6719,-0.6721,-0.6712,-0.6714,-0.6715,-0.6716,-0.6717,-0.6718,-0.6718,-0.6716,-0.6709,-0.6708,-0.671,-0.6712,-0.6715,-0.6714,-0.668,-0.6707,-0.6707,-0.6706,-0.6706,-0.6706,-0.6743,-0.6747,-0.6744,-0.6745,-0.6743,-0.6742,-0.6745,-0.6741,-0.6742,-0.6742,-0.6737,-0.674,-0.6738,-0.6737,-0.6735,-0.6738,-0.6733,-0.6736,-0.6736,-0.6737,-0.6739,-0.6714,-0.6738,-0.6737,-0.6737,-0.6737,-0.6737,0,-0.6769,-0.6766,-0.6767,-0.6766,-0.6767,-0.676,-0.6758,-0.676,-0.6763,-0.6761,-0.6761,-0.6764,-0.6765,-0.676,-0.6761,-0.6764,-0.6761,-0.6765,-0.6764,-0.6764,-0.6743,-0.6741,-0.6767,-0.6767,-0.6767,-0.6767,-0.6767,-0.6767,-0.6782,-0.6788,-0.6784,-0.6789,-0.6786,-0.6789,-0.6789,-0.6788,-0.6786,-0.6789,-0.6791,-0.6787,-0.6784,-0.6785,-0.6786,-0.6784,-0.6785,-0.679,-0.6788,-0.6768,-0.6766,-0.6763,-0.6761,-0.6791,-0.6791,-0.6808,-0.6809,-0.6809]},{"header":{"parameterUnit":"m.s-1","parameterCategory":1,"la1":30.2991,"la2":30.254,"lo1":-89.0895,"lo2":-89.0444,"dy":0.0017,"dx":0.0017,"nx":28,"ny":28,"refTime":"2024-03-31T03:00:00:Z","depth":0,"parameterNumber":3,"parameterNumberName":"V-component_of_WINDS"},"data":[0,0,0,0,0,0,0,0,0,0,0,0,0,0,0,0,0,0,0,0,0,0,0,0,0,0,0,0,0,0,0,0,0,0,0,0,0,0,0,0,0,0,0,0,0,0,0,0,0,0,0,0,0,0,0,0,0,0,3.1231,3.1231,0,3.1269,3.127,3.127,3.1245,3.1243,3.1242,3.1241,3.1281,3.1283,3.1285,0,0,0,0,0,0,0,0,0,0,0,0,0,3.1135,3.1136,3.123,3.1231,3.1231,3.1269,3.127,3.127,3.1245,3.1243,3.1242,3.1241,3.1281,3.1283,3.1286,0,0,0,0,0,0,0,0,0,0,0,0,0,3.1175,3.1137,3.123,3.1223,3.1223,3.1269,3.127,3.1271,3.1245,3.1243,3.1242,3.124,3.128,3.1283,3.1286,3.1342,0,0,3.1296,3.1297,0,0,0,0,0,0,0,0,3.1173,3.1179,3.1224,3.1224,3.1224,3.125,3.1251,3.1294,3.1246,3.1237,3.1241,3.1239,3.1272,3.1276,3.1287,3.1344,3.1345,3.1296,3.1298,3.13,3.1301,0,0,0,0,0,0,0,3.117,3.1177,3.1246,3.1224,3.1224,3.1218,3.1222,3.1259,3.1264,3.1237,3.1236,3.1241,3.1272,3.1284,3.1288,3.1346,3.1296,3.1299,3.1301,3.1302,3.145,3.1452,0,0,0,0,0,0,3.1168,3.1175,3.1245,3.1247,3.1193,3.1221,3.1226,3.1244,3.1264,3.1265,3.1242,3.1239,3.128,3.1284,3.1289,3.1357,3.13,3.1303,3.1305,3.1448,3.1451,3.1453,0,0,0,0,0,0,3.1166,3.1174,3.1243,3.121,3.1219,3.1225,3.1245,3.1245,3.1257,3.1267,3.1268,3.1254,3.1278,3.1285,3.1329,3.1358,3.1304,3.1307,3.1446,3.1449,3.1452,3.1491,0,0,0,0,0,0,3.1163,3.1174,3.1195,3.1211,3.1221,3.1282,3.1247,3.1247,3.1263,3.126,3.1278,3.1279,3.1277,3.1324,3.1332,3.1361,3.131,3.1444,3.1447,3.1451,3.1487,3.1495,3.1501,0,0,0,0,0,3.116,3.1204,3.1196,3.1205,3.1247,3.1284,3.1289,3.1286,3.1266,3.1287,3.1293,3.1279,3.1353,3.1329,3.1338,3.1368,3.1442,3.1446,3.1451,3.1484,3.1493,3.1501,0,0,0,0,0,0,3.1191,3.1206,3.1197,3.1248,3.1265,3.1279,3.1306,3.1296,3.1319,3.1315,3.131,3.1314,3.136,3.1368,3.1342,3.1423,3.1394,3.1401,3.1416,3.1425,3.1432,3.143,3.1312,0,0,0,0,0,3.1204,3.1232,3.1244,3.1287,3.1296,3.13,3.1316,3.1312,3.1329,3.1336,3.1345,3.1363,3.139,3.1408,3.1433,3.1488,3.1492,3.1513,3.152,3.1526,3.1532,3.1562,3.1572,3.1468,3.1468,3.1467,0,0,3.123,3.1242,3.126,3.1294,3.1307,3.1336,3.1306,3.1339,3.1361,3.1341,3.1383,3.1391,3.141,3.146,3.1482,3.1468,3.1561,3.1532,3.1536,3.1539,3.1568,3.1577,3.1586,3.1471,3.147,3.147,0,0,3.1294,3.1306,3.1344,3.1357,3.1377,3.1379,3.1388,3.1404,3.1408,3.1451,3.1437,3.1463,3.151,3.1524,3.1538,3.1608,3.1596,3.1616,3.1654,3.1683,3.1692,3.1699,3.1725,3.1734,3.1622,3.1622,3.1622,0,3.1325,3.137,3.1365,3.1399,3.1414,3.1398,3.1436,3.1449,3.1476,3.1487,3.1471,3.153,3.1541,3.1595,3.1612,3.1623,3.1634,3.1614,3.1691,3.1698,3.1705,3.1729,3.1739,3.1624,3.1624,3.1624,3.1624,0,3.1407,3.1438,3.1466,3.1493,3.1511,3.1548,3.1549,3.1568,3.1563,3.1567,3.1611,3.1624,3.1652,3.1664,3.1659,3.1717,3.1708,3.1691,3.1662,3.1717,3.174,3.1749,3.1628,3.1627,3.1626,3.1626,0,0,3.1492,3.1515,3.1526,3.1538,3.1558,3.1582,3.1618,3.1646,3.1663,3.1682,3.1712,3.1752,3.1737,3.1753,3.1749,3.1775,3.183,3.1755,3.1755,3.1769,3.1896,3.1909,3.192,3.1822,3.1824,3.1825,3.1895,0,3.1558,3.162,3.1617,3.1675,3.1704,3.1689,3.172,3.1736,3.1741,3.1766,3.1771,3.18,3.1778,3.1787,3.1812,3.1818,3.1856,3.1813,3.1851,3.1852,3.1848,3.1932,3.1946,3.2011,3.1904,3.1905,3.1906,0,3.1643,3.1665,3.1727,3.1743,3.1755,3.1783,3.1809,3.1833,3.1851,3.1853,3.187,3.1862,3.1899,3.1868,3.1919,3.189,3.1905,3.1911,3.1913,3.1917,3.1883,3.1939,3.2031,3.2041,3.192,3.1919,3.1918,0,3.17,3.1745,3.1788,3.1799,3.1819,3.1839,3.1848,3.1865,3.1882,3.1904,3.1915,3.1941,3.1956,3.1976,3.1976,3.1954,3.2028,3.1997,3.2031,3.2031,3.2048,3.2047,3.2144,3.2056,3.2056,3.2056,3.2055,0,3.1774,3.1813,3.1814,3.184,3.1883,3.1879,3.1922,3.1929,3.1944,3.1971,3.1959,3.1986,3.1983,3.201,3.201,3.2053,3.2059,3.2062,3.2061,3.2063,3.2063,3.2074,3.207,3.2058,3.2058,3.2057,3.2057,0,3.1845,3.1848,3.1893,3.1909,3.1914,3.1945,3.1958,3.1983,3.1987,3.2022,3.203,3.2036,3.2067,3.2069,3.2104,3.2104,3.2156,3.215,3.215,3.215,3.2184,3.2181,3.2292,3.2307,3.2208,3.2209,3.221,0,3.1893,3.1922,3.1941,3.1959,3.1969,3.1998,3.2016,3.2013,3.2032,3.2055,3.2077,3.2107,3.2131,3.2181,3.2189,3.2216,3.2212,3.2249,3.2216,3.2217,3.2213,3.2212,3.2215,3.2256,3.2257,3.2257,3.2258,0,3.1978,3.1978,3.2003,3.203,3.2051,3.2071,3.209,3.2106,3.2105,3.2127,3.2158,3.2177,3.2214,3.2244,3.227,3.228,3.227,3.2268,3.2278,3.2281,3.228,3.2282,3.2169,3.2266,3.2265,3.2265,3.2264,3.2264,3.2039,3.2065,3.2082,3.2111,3.2125,3.2144,3.2168,3.2175,3.2202,3.2231,3.2228,3.2263,3.2281,3.2316,3.2328,3.2356,3.2343,3.2356,3.236,3.2364,3.2368,3.2275,3.236,3.236,3.236,3.236,3.236,0,3.2124,3.2135,3.2162,3.2189,3.2212,3.2199,3.222,3.224,3.2272,3.2289,3.2313,3.2349,3.2378,3.2388,3.2417,3.2437,3.2433,3.2445,3.2444,3.2447,3.2377,3.2366,3.2448,3.2448,3.2448,3.2448,3.2448,3.2448,3.2171,3.2214,3.2216,3.2266,3.2276,3.2311,3.2324,3.2341,3.2355,3.2396,3.242,3.2427,3.2441,3.2471,3.2497,3.2499,3.2511,3.2525,3.2525,3.246,3.2451,3.2443,3.2433,3.2527,3.2527,3.2593,3.2593,3.2594]}]]